Terug naar catalogus

STARLINK-36870

ActiefCommunicatieSSO
NORAD 67897·PAYLOAD·🇺🇸 United States

Gelanceerd Feb 21, 2026 vanaf Vandenberg Space Force Base

Loading…

Volgende Passages (komende 24 uur)

TLE

VersSource: CelesTrak SupGP

Epoch: Sep 15, 2026, 04:14 UTC

1 67897C 26035U   26258.17687500  .00105980  00000+0  32896-2 0  2580
2 67897  97.2846 190.1255 0001828  99.8110  84.5870 15.33387799    13

Volg STARLINK-36870 in realtime met AllMySat

Download on the App Store